EA2CW-13 Weather Reports


Display with metric or nautical units.
time (UTC)temp
F
wind
direction
speed
MPH
gust
MPH
rain 1hr
in
rain 24hr
in
rain mn
in
humidity
%
barometer
mb
20260504000319 59 0.0 0.0 0.00 0.00 0.00 10 1050.3
20260503234743 59 0.0 0.0 0.00 0.00 0.00 10 1050.6
20260503233207 58 0.0 0.0 0.00 0.00 0.00 10 1050.5
20260503231631 59 0.0 0.0 0.00 0.00 0.00 10 1050.4
20260503230056 59 0.0 0.0 0.00 0.00 0.00 10 1050.6
20260503224519 58 0.0 0.0 0.00 0.00 0.00 10 1050.7
20260503222944 58 0.0 0.0 0.00 0.00 0.00 10 1050.4
20260503221407 59 0.0 0.0 0.00 0.00 0.00 10 1050.6
20260503215832 59 0.0 0.0 0.00 0.00 0.00 10 1050.6
20260503214256 59 0.0 0.0 0.00 0.00 0.00 10 1050.2
20260503211144 60 0.0 0.0 0.00 0.00 0.00 10 1049.9
20260503205608 61 0.0 0.0 0.00 0.00 0.00 10 1049.6
20260503204032 61 0.0 0.0 0.00 0.00 0.00 10 1048.8
20260503202456 62 0.0 0.0 0.00 0.00 0.00 10 1048.8
20260503200920 62 0.0 0.0 0.00 0.00 0.00 10 1048.5
20260503195344 61 0.0 0.0 0.00 0.00 0.00 10 1048.5
20260503193808 61 0.0 0.0 0.00 0.00 0.00 10 1048.5
20260503192232 61 0.0 0.0 0.00 0.00 0.00 10 1048.5
20260503190656 60 0.0 0.0 0.00 0.00 0.00 10 1048.5
20260503185120 62 0.0 0.0 0.00 0.00 0.00 10 1048.5
20260503183544 61 0.0 0.0 0.00 0.00 0.00 10 1048.4
20260503182008 61 0.0 0.0 0.00 0.00 0.00 10 1048.4
20260503180432 61 0.0 0.0 0.00 0.00 0.00 10 1048.0
20260503174856 61 0.0 0.0 0.00 0.00 0.00 10 1047.9
20260503173320 62 0.0 0.0 0.00 0.00 0.00 10 1048.0
20260503171744 62 0.0 0.0 0.00 0.00 0.00 10 1047.8
20260503170208 62 0.0 0.0 0.00 0.00 0.00 10 1048.2
20260503130809 73 0.0 0.0 0.00 0.00 0.00 70 1048.7
20260503110321 67 0.0 0.0 0.00 0.00 0.00 69 1049.6
20260503081145 70 0.0 0.0 0.00 0.00 0.00 68 1049.4
20260503072457 67 0.0 0.0 0.00 0.00 0.00 83 1049.6
20260503070921 65 0.0 0.0 0.00 0.00 0.00 86 1049.8
20260503055122 61 0.0 0.0 0.00 0.00 0.00 95 1049.9
20260503053546 60 0.0 0.0 0.00 0.00 0.00 96 1049.9
20260503052010 59 0.0 0.0 0.00 0.00 0.00 96 1049.8
20260503050434 59 0.0 0.0 0.00 0.00 0.00 95 1049.7
20260503044858 59 0.0 0.0 0.00 0.00 0.00 95 1049.7
20260503043322 59 0.0 0.0 0.00 0.00 0.00 95 1049.6
20260503041746 59 0.0 0.0 0.00 0.00 0.00 95 1049.5
20260503040210 59 0.0 0.0 0.00 0.00 0.00 95 1049.6
20260503034634 59 0.0 0.0 0.00 0.00 0.00 94 1049.6
20260503033058 59 0.0 0.0 0.00 0.00 0.00 94 1049.7
20260503031522 60 0.0 0.0 0.00 0.00 0.00 94 1049.8
20260503025946 60 0.0 0.0 0.00 0.00 0.00 93 1049.9
20260503024410 60 0.0 0.0 0.00 0.00 0.00 93 1050.0
20260503022834 60 0.0 0.0 0.00 0.00 0.00 93 1050.2
20260503021258 60 0.0 0.0 0.00 0.00 0.00 92 1050.1
20260503015722 61 0.0 0.0 0.00 0.00 0.00 92 1050.2
20260503014146 61 0.0 0.0 0.00 0.00 0.00 91 1050.3
20260503012610 62 0.0 0.0 0.00 0.00 0.00 90 1050.4
20260503011034 63 0.0 0.0 0.00 0.00 0.00 89 1050.6
20260503005458 62 0.0 0.0 0.00 0.00 0.00 90 1050.7
20260503003922 63 0.0 0.0 0.00 0.00 0.00 89 1050.8
20260503002346 62 0.0 0.0 0.00 0.00 0.00 90 1050.8